Back to catalog

STARLINK-34550

AliveCommunicationsVLEO
NORAD 64683·PAYLOAD·🇺🇸 United States

Launched Jun 28, 2025 from Cape Canaveral Space Force Station

Loading…

Next Passes (next 24 hours)

TLE

FreshSource: CelesTrak SupGP

Epoch: Sep 14, 2026, 21:25 UTC

1 64683C 25139V   26257.89284722 -.00013287  00000+0 -39278-3 0  2572
2 64683  53.1593 323.9557 0001259  85.8517 212.7058 15.34380225    19

Track STARLINK-34550 in real time with AllMySat

Download on the App Store